Time,TemperatureF,DewpointF,PressureIn,WindDirection,WindDirectionDegrees,WindSpeedMPH,WindSpeedGustMPH,Humidity,HourlyPrecipIn,Conditions,Clouds,dailyrainin,SoftwareType,DateUTC
2013-11-09 00:02:00,47.9,35.1,30.13,SSE,166,1.0,1.0,61,0.00,,CLR,0.00,VWS V14.01,2013-11-09 06:02:00,
2013-11-09 00:07:00,48.0,35.2,30.13,South,185,3.0,12.0,61,0.00,,CLR,0.00,VWS V14.01,2013-11-09 06:07:00,
2013-11-09 00:12:00,47.9,35.1,30.13,South,190,8.0,8.0,61,0.00,,CLR,0.00,VWS V14.01,2013-11-09 06:12:00,
2013-11-09 00:17:00,47.9,35.1,30.13,SSW,192,0.0,9.0,61,0.00,,CLR,0.00,VWS V14.01,2013-11-09 06:17:00,
2013-11-09 00:22:00,47.8,35.4,30.13,SSW,209,2.0,5.0,62,0.00,,CLR,0.00,VWS V14.01,2013-11-09 06:22:00,
2013-11-09 00:27:00,47.8,35.4,30.13,SSW,205,6.0,11.0,62,0.00,,CLR,0.00,VWS V14.01,2013-11-09 06:27:00,
2013-11-09 00:32:00,47.8,35.4,30.13,South,188,6.0,6.0,62,0.00,,CLR,0.00,VWS V14.01,2013-11-09 06:32:00,
2013-11-09 00:37:00,47.7,35.3,30.13,SSW,206,3.0,11.0,62,0.00,,CLR,0.00,VWS V14.01,2013-11-09 06:37:00,
2013-11-09 00:42:00,47.6,35.2,30.13,SSE,154,7.0,9.0,62,0.00,,CLR,0.00,VWS V14.01,2013-11-09 06:42:00,
2013-11-09 00:47:00,47.4,35.5,30.12,SW,215,6.0,11.0,63,0.00,,CLR,0.00,VWS V14.01,2013-11-09 06:47:00,
2013-11-09 00:52:00,47.3,35.4,30.12,SW,223,3.0,5.0,63,0.00,,CLR,0.00,VWS V14.01,2013-11-09 06:52:00,
2013-11-09 00:57:00,47.2,35.3,30.12,South,187,8.0,9.0,63,0.00,,CLR,0.00,VWS V14.01,2013-11-09 06:57:00,
2013-11-09 01:02:00,47.1,35.2,30.12,SSW,210,7.0,7.0,63,0.00,,CLR,0.00,VWS V14.01,2013-11-09 07:02:00,
2013-11-09 01:07:00,47.0,35.5,30.12,South,190,3.0,14.0,64,0.00,,CLR,0.00,VWS V14.01,2013-11-09 07:07:00,
2013-11-09 01:12:00,46.9,35.4,30.12,South,185,3.0,5.0,64,0.00,,CLR,0.00,VWS V14.01,2013-11-09 07:12:00,
2013-11-09 01:17:00,46.9,35.4,30.12,SSW,206,2.0,10.0,64,0.00,,CLR,0.00,VWS V14.01,2013-11-09 07:17:00,
2013-11-09 01:22:00,46.8,35.3,30.12,South,184,11.0,11.0,64,0.00,,CLR,0.00,VWS V14.01,2013-11-09 07:22:00,
2013-11-09 01:27:00,46.8,35.3,30.12,South,182,2.0,11.0,64,0.00,,CLR,0.00,VWS V14.01,2013-11-09 07:27:00,
2013-11-09 01:32:00,46.6,35.5,30.12,SSW,198,3.0,3.0,65,0.00,,CLR,0.00,VWS V14.01,2013-11-09 07:32:00,
2013-11-09 01:37:00,46.6,35.5,30.11,South,177,1.0,12.0,65,0.00,,CLR,0.00,VWS V14.01,2013-11-09 07:37:00,
2013-11-09 01:42:00,46.5,35.4,30.11,SSW,209,1.0,1.0,65,0.00,,CLR,0.00,VWS V14.01,2013-11-09 07:42:00,
2013-11-09 01:47:00,46.4,35.7,30.11,South,179,10.0,10.0,66,0.00,,CLR,0.00,VWS V14.01,2013-11-09 07:47:00,
2013-11-09 01:52:00,46.3,35.6,30.11,South,186,3.0,6.0,66,0.00,,CLR,0.00,VWS V14.01,2013-11-09 07:52:00,
2013-11-09 01:57:00,46.3,35.6,30.11,South,184,0.0,7.0,66,0.00,,CLR,0.00,VWS V14.01,2013-11-09 07:57:00,
2013-11-09 02:02:00,46.1,35.4,30.12,SSW,194,2.0,3.0,66,0.00,,CLR,0.00,VWS V14.01,2013-11-09 08:02:00,
2013-11-09 02:07:00,46.1,35.8,30.12,SSW,202,4.0,14.0,67,0.00,,CLR,0.00,VWS V14.01,2013-11-09 08:07:00,
2013-11-09 02:12:00,45.9,35.6,30.12,South,190,0.0,0.0,67,0.00,,CLR,0.00,VWS V14.01,2013-11-09 08:12:00,
2013-11-09 02:17:00,45.7,35.4,30.12,South,189,0.0,7.0,67,0.00,,CLR,0.00,VWS V14.01,2013-11-09 08:17:00,
2013-11-09 02:22:00,45.5,35.6,30.12,South,189,3.0,5.0,68,0.00,,CLR,0.00,VWS V14.01,2013-11-09 08:22:00,
2013-11-09 02:27:00,45.3,35.4,30.13,South,188,2.0,5.0,68,0.00,,CLR,0.00,VWS V14.01,2013-11-09 08:27:00,
2013-11-09 02:32:00,45.2,35.7,30.12,South,184,0.0,0.0,69,0.00,,CLR,0.00,VWS V14.01,2013-11-09 08:32:00,
2013-11-09 02:37:00,45.1,35.5,30.12,South,184,2.0,5.0,69,0.00,,CLR,0.00,VWS V14.01,2013-11-09 08:37:00,
2013-11-09 02:42:00,45.0,35.8,30.11,South,184,6.0,6.0,70,0.00,,CLR,0.00,VWS V14.01,2013-11-09 08:42:00,
2013-11-09 02:47:00,45.1,35.9,30.10,South,175,4.0,7.0,70,0.00,,CLR,0.00,VWS V14.01,2013-11-09 08:47:00,
2013-11-09 02:52:00,45.1,35.9,30.10,South,184,4.0,4.0,70,0.00,,CLR,0.00,VWS V14.01,2013-11-09 08:52:00,
2013-11-09 02:57:00,45.1,35.9,30.10,SSE,167,5.0,8.0,70,0.00,,CLR,0.00,VWS V14.01,2013-11-09 08:57:00,
2013-11-09 03:02:00,45.2,36.0,30.11,SSW,203,1.0,2.0,70,0.00,,CLR,0.00,VWS V14.01,2013-11-09 09:02:00,
2013-11-09 03:07:00,45.3,36.1,30.11,SSW,205,0.0,5.0,70,0.00,,CLR,0.00,VWS V14.01,2013-11-09 09:07:00,
2013-11-09 03:12:00,45.3,36.1,30.11,South,179,0.0,0.0,70,0.00,,CLR,0.00,VWS V14.01,2013-11-09 09:12:00,
2013-11-09 03:17:00,45.2,36.0,30.11,South,182,6.0,7.0,70,0.00,,CLR,0.00,VWS V14.01,2013-11-09 09:17:00,
2013-11-09 03:22:00,45.1,35.9,30.11,SW,226,0.0,6.0,70,0.00,,CLR,0.00,VWS V14.01,2013-11-09 09:22:00,
2013-11-09 03:27:00,44.9,36.1,30.11,SSW,204,1.0,6.0,71,0.00,,CLR,0.00,VWS V14.01,2013-11-09 09:27:00,
2013-11-09 03:32:00,44.8,36.0,30.10,SSW,192,6.0,6.0,71,0.00,,CLR,0.00,VWS V14.01,2013-11-09 09:32:00,
2013-11-09 03:37:00,44.6,36.2,30.10,South,191,0.0,6.0,72,0.00,,CLR,0.00,VWS V14.01,2013-11-09 09:37:00,
2013-11-09 03:42:00,44.6,36.2,30.10,South,187,0.0,1.0,72,0.00,,CLR,0.00,VWS V14.01,2013-11-09 09:42:00,
2013-11-09 03:47:00,44.6,36.2,30.10,South,186,1.0,6.0,72,0.00,,CLR,0.00,VWS V14.01,2013-11-09 09:47:00,
2013-11-09 03:52:00,44.7,36.6,30.10,SSW,192,0.0,1.0,73,0.00,,CLR,0.00,VWS V14.01,2013-11-09 09:52:00,
2013-11-09 03:57:00,44.8,36.7,30.10,South,182,5.0,7.0,73,0.00,,CLR,0.00,VWS V14.01,2013-11-09 09:57:00,
2013-11-09 04:02:00,44.9,36.8,30.10,SSE,165,4.0,5.0,73,0.00,,CLR,0.00,VWS V14.01,2013-11-09 10:02:00,
2013-11-09 04:07:00,44.9,36.8,30.10,South,172,4.0,6.0,73,0.00,,CLR,0.00,VWS V14.01,2013-11-09 10:07:00,
2013-11-09 04:12:00,44.9,36.8,30.10,South,181,0.0,2.0,73,0.00,,CLR,0.00,VWS V14.01,2013-11-09 10:12:00,
2013-11-09 04:17:00,45.0,36.9,30.10,South,176,2.0,8.0,73,0.00,,CLR,0.00,VWS V14.01,2013-11-09 10:17:00,
2013-11-09 04:22:00,45.0,36.9,30.10,South,182,3.0,3.0,73,0.00,,CLR,0.00,VWS V14.01,2013-11-09 10:22:00,
2013-11-09 04:27:00,44.9,36.8,30.10,South,182,1.0,7.0,73,0.00,,CLR,0.00,VWS V14.01,2013-11-09 10:27:00,
2013-11-09 04:32:00,44.8,36.7,30.10,South,182,0.0,4.0,73,0.00,,CLR,0.00,VWS V14.01,2013-11-09 10:32:00,
2013-11-09 04:37:00,44.8,37.0,30.11,South,178,1.0,4.0,74,0.00,,CLR,0.00,VWS V14.01,2013-11-09 10:37:00,
2013-11-09 04:42:00,44.7,36.9,30.11,South,178,0.0,2.0,74,0.00,,CLR,0.00,VWS V14.01,2013-11-09 10:42:00,
2013-11-09 04:47:00,44.7,36.9,30.11,South,177,0.0,7.0,74,0.00,,CLR,0.00,VWS V14.01,2013-11-09 10:47:00,
2013-11-09 04:52:00,44.6,36.8,30.11,South,177,0.0,2.0,74,0.00,,CLR,0.00,VWS V14.01,2013-11-09 10:52:00,
2013-11-09 04:57:00,44.6,37.2,30.11,South,177,0.0,7.0,75,0.00,,CLR,0.00,VWS V14.01,2013-11-09 10:57:00,
2013-11-09 05:02:00,44.7,37.3,30.10,South,177,0.0,4.0,75,0.00,,CLR,0.00,VWS V14.01,2013-11-09 11:02:00,
2013-11-09 05:07:00,44.6,37.2,30.10,South,177,0.0,4.0,75,0.00,,CLR,0.00,VWS V14.01,2013-11-09 11:07:00,
2013-11-09 05:12:00,44.5,37.4,30.11,South,173,0.0,4.0,76,0.00,,CLR,0.00,VWS V14.01,2013-11-09 11:12:00,
2013-11-09 05:17:00,44.6,37.5,30.10,South,184,0.0,6.0,76,0.00,,CLR,0.00,VWS V14.01,2013-11-09 11:17:00,
2013-11-09 05:22:00,44.7,37.6,30.10,SSE,168,1.0,5.0,76,0.00,,CLR,0.00,VWS V14.01,2013-11-09 11:22:00,
2013-11-09 05:27:00,44.8,37.7,30.10,South,186,5.0,10.0,76,0.00,,CLR,0.00,VWS V14.01,2013-11-09 11:27:00,
2013-11-09 05:32:00,45.0,37.9,30.09,SW,218,3.0,7.0,76,0.00,,CLR,0.00,VWS V14.01,2013-11-09 11:32:00,
2013-11-09 05:37:00,45.3,38.2,30.09,South,179,6.0,11.0,76,0.00,,CLR,0.00,VWS V14.01,2013-11-09 11:37:00,
2013-11-09 05:42:00,45.5,38.4,30.10,South,183,3.0,6.0,76,0.00,,CLR,0.00,VWS V14.01,2013-11-09 11:42:00,
2013-11-09 05:47:00,45.6,38.5,30.09,SSW,203,2.0,10.0,76,0.00,,CLR,0.00,VWS V14.01,2013-11-09 11:47:00,
2013-11-09 05:52:00,45.7,38.6,30.09,South,182,1.0,5.0,76,0.00,,CLR,0.00,VWS V14.01,2013-11-09 11:52:00,
2013-11-09 05:57:00,45.9,38.8,30.09,SSE,167,2.0,13.0,76,0.00,,CLR,0.00,VWS V14.01,2013-11-09 11:57:00,
2013-11-09 06:02:00,46.2,38.7,30.09,SSW,198,1.0,5.0,75,0.00,,CLR,0.00,VWS V14.01,2013-11-09 12:02:00,
2013-11-09 06:07:00,46.3,38.8,30.09,South,186,1.0,11.0,75,0.00,,CLR,0.00,VWS V14.01,2013-11-09 12:07:00,
2013-11-09 06:12:00,46.3,38.8,30.09,South,188,2.0,5.0,75,0.00,,CLR,0.00,VWS V14.01,2013-11-09 12:12:00,
2013-11-09 06:17:00,46.5,39.0,30.09,WSW,242,1.0,7.0,75,0.00,,CLR,0.00,VWS V14.01,2013-11-09 12:17:00,
2013-11-09 06:22:00,46.6,39.1,30.09,SW,219,3.0,7.0,75,0.00,,CLR,0.00,VWS V14.01,2013-11-09 12:22:00,
2013-11-09 06:27:00,46.5,39.0,30.09,SW,222,2.0,7.0,75,0.00,,CLR,0.00,VWS V14.01,2013-11-09 12:27:00,
2013-11-09 06:32:00,46.7,39.2,30.09,SW,220,2.0,4.0,75,0.00,,CLR,0.00,VWS V14.01,2013-11-09 12:32:00,
2013-11-09 06:37:00,46.8,39.3,30.10,SW,232,0.0,8.0,75,0.00,,CLR,0.00,VWS V14.01,2013-11-09 12:37:00,
2013-11-09 06:42:00,46.9,39.4,30.10,SSW,198,1.0,4.0,75,0.00,,CLR,0.00,VWS V14.01,2013-11-09 12:42:00,
2013-11-09 06:47:00,47.1,39.6,30.10,WSW,241,4.0,8.0,75,0.00,,CLR,0.00,VWS V14.01,2013-11-09 12:47:00,
2013-11-09 06:52:00,47.2,39.7,30.10,SE,134,5.0,5.0,75,0.00,,CLR,0.00,VWS V14.01,2013-11-09 12:52:00,
2013-11-09 06:57:00,47.3,39.5,30.10,SSW,194,0.0,10.0,74,0.00,,CLR,0.00,VWS V14.01,2013-11-09 12:57:00,
2013-11-09 07:02:00,47.4,39.5,30.10,South,181,5.0,6.0,74,0.00,,CLR,0.00,VWS V14.01,2013-11-09 13:02:00,
2013-11-09 07:07:00,47.6,39.7,30.11,South,175,5.0,10.0,74,0.00,,CLR,0.00,VWS V14.01,2013-11-09 13:07:00,
2013-11-09 07:12:00,47.7,39.8,30.11,WSW,244,4.0,6.0,74,0.00,,CLR,0.00,VWS V14.01,2013-11-09 13:12:00,
2013-11-09 07:17:00,47.9,40.0,30.11,South,180,3.0,7.0,74,0.00,,CLR,0.00,VWS V14.01,2013-11-09 13:17:00,
2013-11-09 07:22:00,48.1,40.2,30.11,SSW,196,2.0,9.0,74,0.00,,CLR,0.00,VWS V14.01,2013-11-09 13:22:00,
2013-11-09 07:27:00,48.3,40.1,30.11,SSW,205,1.0,9.0,73,0.00,,CLR,0.00,VWS V14.01,2013-11-09 13:27:00,
2013-11-09 07:32:00,48.6,40.3,30.11,SSW,196,0.0,3.0,73,0.00,,CLR,0.00,VWS V14.01,2013-11-09 13:32:00,
2013-11-09 07:37:00,49.0,40.7,30.11,SW,225,0.0,8.0,73,0.00,,CLR,0.00,VWS V14.01,2013-11-09 13:37:00,
2013-11-09 07:42:00,49.4,40.8,30.12,SW,231,4.0,7.0,72,0.00,,CLR,0.00,VWS V14.01,2013-11-09 13:42:00,
2013-11-09 07:47:00,49.7,41.0,30.12,SW,221,2.0,7.0,72,0.00,,CLR,0.00,VWS V14.01,2013-11-09 13:47:00,
2013-11-09 07:52:00,50.1,41.1,30.12,SSW,209,6.0,9.0,71,0.00,,CLR,0.00,VWS V14.01,2013-11-09 13:52:00,
2013-11-09 07:57:00,50.4,41.0,30.13,SSW,208,1.0,9.0,70,0.00,,CLR,0.00,VWS V14.01,2013-11-09 13:57:00,
2013-11-09 08:02:00,50.7,41.3,30.12,SSW,192,5.0,10.0,70,0.00,,CLR,0.00,VWS V14.01,2013-11-09 14:02:00,
2013-11-09 08:07:00,51.0,41.2,30.13,WSW,242,0.0,10.0,69,0.00,,CLR,0.00,VWS V14.01,2013-11-09 14:07:00,
2013-11-09 08:12:00,51.4,41.6,30.13,South,187,2.0,11.0,69,0.00,,CLR,0.00,VWS V14.01,2013-11-09 14:12:00,
2013-11-09 08:17:00,51.8,41.6,30.13,SSW,206,6.0,11.0,68,0.00,,CLR,0.00,VWS V14.01,2013-11-09 14:17:00,
2013-11-09 08:22:00,52.3,41.7,30.13,SW,230,8.0,12.0,67,0.00,,CLR,0.00,VWS V14.01,2013-11-09 14:22:00,
2013-11-09 08:27:00,52.7,41.3,30.13,SW,225,6.0,15.0,65,0.00,,CLR,0.00,VWS V14.01,2013-11-09 14:27:00,
2013-11-09 08:32:00,53.0,41.6,30.13,WSW,241,3.0,7.0,65,0.00,,CLR,0.00,VWS V14.01,2013-11-09 14:32:00,
2013-11-09 08:37:00,53.5,42.0,30.13,SSW,200,3.0,13.0,65,0.00,,CLR,0.00,VWS V14.01,2013-11-09 14:37:00,
2013-11-09 08:42:00,53.8,41.9,30.12,South,182,6.0,6.0,64,0.00,,CLR,0.00,VWS V14.01,2013-11-09 14:42:00,
2013-11-09 08:47:00,54.1,41.8,30.13,SW,221,2.0,16.0,63,0.00,,CLR,0.00,VWS V14.01,2013-11-09 14:47:00,
2013-11-09 08:52:00,54.3,42.0,30.13,SW,214,5.0,16.0,63,0.00,,CLR,0.00,VWS V14.01,2013-11-09 14:52:00,
2013-11-09 08:57:00,54.6,41.9,30.12,South,188,4.0,16.0,62,0.00,,CLR,0.00,VWS V14.01,2013-11-09 14:57:00,
2013-11-09 09:02:00,55.0,41.8,30.12,SSW,205,6.0,8.0,61,0.00,,CLR,0.00,VWS V14.01,2013-11-09 15:02:00,
2013-11-09 09:07:00,55.2,42.0,30.12,WSW,246,7.0,13.0,61,0.00,,CLR,0.00,VWS V14.01,2013-11-09 15:07:00,
2013-11-09 09:12:00,55.5,41.9,30.12,WSW,249,8.0,11.0,60,0.00,,CLR,0.00,VWS V14.01,2013-11-09 15:12:00,
2013-11-09 09:17:00,55.8,42.6,30.12,SW,224,4.0,12.0,61,0.00,,CLR,0.00,VWS V14.01,2013-11-09 15:17:00,
2013-11-09 09:23:00,56.1,42.4,30.12,WSW,255,1.0,5.0,60,0.00,,CLR,0.00,VWS V14.01,2013-11-09 15:23:00,
2013-11-09 09:28:00,56.4,42.3,30.12,SSW,202,6.0,15.0,59,0.00,,CLR,0.00,VWS V14.01,2013-11-09 15:28:00,
2013-11-09 09:33:00,56.6,42.5,30.12,WSW,239,7.0,10.0,59,0.00,,CLR,0.00,VWS V14.01,2013-11-09 15:33:00,
2013-11-09 09:38:00,56.7,42.5,30.12,SW,231,3.0,11.0,59,0.00,,CLR,0.00,VWS V14.01,2013-11-09 15:38:00,
2013-11-09 09:43:00,56.9,42.3,30.12,WSW,246,7.0,10.0,58,0.00,,CLR,0.00,VWS V14.01,2013-11-09 15:43:00,
2013-11-09 09:48:00,57.1,42.5,30.12,WSW,241,5.0,15.0,58,0.00,,CLR,0.00,VWS V14.01,2013-11-09 15:48:00,
2013-11-09 09:53:00,57.2,42.6,30.12,SW,219,7.0,10.0,58,0.00,,CLR,0.00,VWS V14.01,2013-11-09 15:53:00,
2013-11-09 09:58:00,57.6,43.4,30.12,WSW,239,7.0,13.0,59,0.00,,CLR,0.00,VWS V14.01,2013-11-09 15:58:00,
2013-11-09 10:03:00,57.6,43.0,30.12,West,277,6.0,9.0,58,0.00,,CLR,0.00,VWS V14.01,2013-11-09 16:03:00,
2013-11-09 10:08:00,57.7,42.6,30.12,SW,223,14.0,15.0,57,0.00,,CLR,0.00,VWS V14.01,2013-11-09 16:08:00,
2013-11-09 10:13:00,58.0,42.9,30.12,WSW,241,6.0,10.0,57,0.00,,CLR,0.00,VWS V14.01,2013-11-09 16:13:00,
2013-11-09 10:18:00,58.4,42.8,30.12,West,267,6.0,17.0,56,0.00,,CLR,0.00,VWS V14.01,2013-11-09 16:18:00,
2013-11-09 10:23:00,58.7,43.1,30.12,WSW,252,5.0,9.0,56,0.00,,CLR,0.00,VWS V14.01,2013-11-09 16:23:00,
2013-11-09 10:28:00,58.9,43.2,30.12,WSW,249,8.0,13.0,56,0.00,,CLR,0.00,VWS V14.01,2013-11-09 16:28:00,
2013-11-09 10:33:00,58.9,43.2,30.12,West,260,5.0,10.0,56,0.00,,CLR,0.00,VWS V14.01,2013-11-09 16:33:00,
2013-11-09 10:38:00,59.2,43.5,30.12,WSW,254,4.0,10.0,56,0.00,,CLR,0.00,VWS V14.01,2013-11-09 16:38:00,
2013-11-09 10:43:00,59.8,43.6,30.11,WSW,244,2.0,7.0,55,0.00,,CLR,0.00,VWS V14.01,2013-11-09 16:43:00,
2013-11-09 10:48:00,60.2,44.0,30.12,West,262,4.0,13.0,55,0.00,,CLR,0.00,VWS V14.01,2013-11-09 16:48:00,
2013-11-09 10:53:00,60.4,44.2,30.12,WSW,252,11.0,11.0,55,0.00,,CLR,0.00,VWS V14.01,2013-11-09 16:53:00,
2013-11-09 10:58:00,60.5,43.3,30.11,West,275,7.0,13.0,53,0.00,,CLR,0.00,VWS V14.01,2013-11-09 16:58:00,
2013-11-09 11:03:00,60.5,43.8,30.11,West,261,4.0,8.0,54,0.00,,CLR,0.00,VWS V14.01,2013-11-09 17:03:00,
2013-11-09 11:08:00,60.7,43.5,30.11,WSW,249,7.0,16.0,53,0.00,,CLR,0.00,VWS V14.01,2013-11-09 17:08:00,
2013-11-09 11:13:00,60.8,43.1,30.11,WNW,283,4.0,8.0,52,0.00,,CLR,0.00,VWS V14.01,2013-11-09 17:13:00,
2013-11-09 11:18:00,60.7,43.0,30.11,West,275,4.0,11.0,52,0.00,,CLR,0.00,VWS V14.01,2013-11-09 17:18:00,
2013-11-09 11:23:00,60.6,43.4,30.11,WNW,290,4.0,7.0,53,0.00,,CLR,0.00,VWS V14.01,2013-11-09 17:23:00,
2013-11-09 11:28:00,61.0,43.3,30.11,NW,311,6.0,12.0,52,0.00,,CLR,0.00,VWS V14.01,2013-11-09 17:28:00,
2013-11-09 11:33:00,61.1,43.4,30.11,NW,310,6.0,8.0,52,0.00,,CLR,0.00,VWS V14.01,2013-11-09 17:33:00,
2013-11-09 11:38:00,61.1,43.4,30.11,WSW,247,6.0,14.0,52,0.00,,CLR,0.00,VWS V14.01,2013-11-09 17:38:00,
2013-11-09 11:43:00,61.3,44.0,30.10,WSW,242,10.0,11.0,53,0.00,,CLR,0.00,VWS V14.01,2013-11-09 17:43:00,
2013-11-09 11:48:00,61.4,44.1,30.10,WSW,246,4.0,13.0,53,0.00,,CLR,0.00,VWS V14.01,2013-11-09 17:48:00,
2013-11-09 11:53:00,61.5,43.7,30.10,West,278,3.0,5.0,52,0.00,,CLR,0.00,VWS V14.01,2013-11-09 17:53:00,
2013-11-09 11:58:00,61.9,44.1,30.10,South,184,2.0,11.0,52,0.00,,CLR,0.00,VWS V14.01,2013-11-09 17:58:00,
2013-11-09 12:03:00,62.2,43.9,30.10,WSW,250,5.0,10.0,51,0.00,,CLR,0.00,VWS V14.01,2013-11-09 18:03:00,
2013-11-09 12:08:00,62.2,43.9,30.09,WSW,246,4.0,10.0,51,0.00,,CLR,0.00,VWS V14.01,2013-11-09 18:08:00,
2013-11-09 12:13:00,62.6,43.7,30.09,SW,219,3.0,9.0,50,0.00,,CLR,0.00,VWS V14.01,2013-11-09 18:13:00,
2013-11-09 12:18:00,62.8,44.4,30.09,SW,235,2.0,9.0,51,0.00,,CLR,0.00,VWS V14.01,2013-11-09 18:18:00,
2013-11-09 12:23:00,62.9,44.0,30.09,SW,223,5.0,12.0,50,0.00,,CLR,0.00,VWS V14.01,2013-11-09 18:23:00,
2013-11-09 12:28:00,63.1,43.7,30.08,WSW,249,6.0,12.0,49,0.00,,CLR,0.00,VWS V14.01,2013-11-09 18:28:00,
2013-11-09 12:33:00,63.4,43.9,30.08,South,178,0.0,7.0,49,0.00,,CLR,0.00,VWS V14.01,2013-11-09 18:33:00,
2013-11-09 12:38:00,63.8,44.3,30.08,South,186,4.0,12.0,49,0.00,,CLR,0.00,VWS V14.01,2013-11-09 18:38:00,
2013-11-09 12:43:00,63.8,44.3,30.09,WSW,249,3.0,5.0,49,0.00,,CLR,0.00,VWS V14.01,2013-11-09 18:43:00,
2013-11-09 12:48:00,63.7,44.2,30.08,WSW,243,2.0,13.0,49,0.00,,CLR,0.00,VWS V14.01,2013-11-09 18:48:00,
2013-11-09 12:53:00,63.8,44.3,30.08,SSW,200,5.0,16.0,49,0.00,,CLR,0.00,VWS V14.01,2013-11-09 18:53:00,
2013-11-09 12:58:00,63.5,44.5,30.08,WSW,243,3.0,16.0,50,0.00,,CLR,0.00,VWS V14.01,2013-11-09 18:58:00,
2013-11-09 13:03:00,63.4,44.5,30.08,SW,234,2.0,10.0,50,0.00,,CLR,0.00,VWS V14.01,2013-11-09 19:03:00,
2013-11-09 13:08:00,63.5,44.0,30.08,SSW,208,10.0,15.0,49,0.00,,CLR,0.00,VWS V14.01,2013-11-09 19:08:00,
2013-11-09 13:13:00,63.6,44.6,30.08,WSW,238,6.0,7.0,50,0.00,,CLR,0.00,VWS V14.01,2013-11-09 19:13:00,
2013-11-09 13:18:00,63.8,43.8,30.08,SSW,212,4.0,14.0,48,0.00,,CLR,0.00,VWS V14.01,2013-11-09 19:18:00,
2013-11-09 13:23:00,63.8,43.8,30.08,WSW,243,11.0,17.0,48,0.00,,CLR,0.00,VWS V14.01,2013-11-09 19:23:00,
2013-11-09 13:28:00,63.6,43.6,30.08,West,273,3.0,17.0,48,0.00,,CLR,0.00,VWS V14.01,2013-11-09 19:28:00,
2013-11-09 13:33:00,64.0,43.9,30.08,WSW,246,6.0,12.0,48,0.00,,CLR,0.00,VWS V14.01,2013-11-09 19:33:00,
2013-11-09 13:38:00,64.3,44.2,30.08,SSW,213,2.0,12.0,48,0.00,,CLR,0.00,VWS V14.01,2013-11-09 19:38:00,
2013-11-09 13:43:00,64.6,43.9,30.08,WSW,244,3.0,10.0,47,0.00,,CLR,0.00,VWS V14.01,2013-11-09 19:43:00,
2013-11-09 13:48:00,64.7,44.0,30.08,WSW,237,6.0,13.0,47,0.00,,CLR,0.00,VWS V14.01,2013-11-09 19:48:00,
2013-11-09 13:53:00,64.6,43.9,30.08,SSW,210,6.0,11.0,47,0.00,,CLR,0.00,VWS V14.01,2013-11-09 19:53:00,
2013-11-09 13:58:00,64.4,43.8,30.08,WSW,247,3.0,12.0,47,0.00,,CLR,0.00,VWS V14.01,2013-11-09 19:58:00,
2013-11-09 14:03:00,64.6,44.5,30.08,WNW,284,3.0,6.0,48,0.00,,CLR,0.00,VWS V14.01,2013-11-09 20:03:00,
2013-11-09 14:08:00,64.9,44.8,30.08,WSW,239,5.0,8.0,48,0.00,,CLR,0.00,VWS V14.01,2013-11-09 20:08:00,
2013-11-09 14:13:00,65.1,43.8,30.08,SSE,163,6.0,10.0,46,0.00,,CLR,0.00,VWS V14.01,2013-11-09 20:13:00,
2013-11-09 14:18:00,65.0,44.3,30.08,SW,227,2.0,12.0,47,0.00,,CLR,0.00,VWS V14.01,2013-11-09 20:18:00,
2013-11-09 14:23:00,65.3,44.6,30.08,West,265,5.0,11.0,47,0.00,,CLR,0.00,VWS V14.01,2013-11-09 20:23:00,
2013-11-09 14:28:00,65.4,44.7,30.07,WSW,252,7.0,11.0,47,0.00,,CLR,0.00,VWS V14.01,2013-11-09 20:28:00,
2013-11-09 14:33:00,65.4,44.1,30.08,SSW,212,6.0,10.0,46,0.00,,CLR,0.00,VWS V14.01,2013-11-09 20:33:00,
2013-11-09 14:38:00,65.5,44.8,30.07,WSW,252,12.0,14.0,47,0.00,,CLR,0.00,VWS V14.01,2013-11-09 20:38:00,
2013-11-09 14:43:00,65.6,44.3,30.07,WSW,240,5.0,9.0,46,0.00,,CLR,0.00,VWS V14.01,2013-11-09 20:43:00,
2013-11-09 14:48:00,65.6,44.3,30.07,West,261,4.0,9.0,46,0.00,,CLR,0.00,VWS V14.01,2013-11-09 20:48:00,
2013-11-09 14:53:00,65.5,44.2,30.07,SW,233,6.0,13.0,46,0.00,,CLR,0.00,VWS V14.01,2013-11-09 20:53:00,
2013-11-09 14:58:00,65.4,44.1,30.07,WSW,242,3.0,13.0,46,0.00,,CLR,0.00,VWS V14.01,2013-11-09 20:58:00,
2013-11-09 15:03:00,65.5,44.2,30.07,SW,225,3.0,8.0,46,0.00,,CLR,0.00,VWS V14.01,2013-11-09 21:03:00,
2013-11-09 15:08:00,65.8,44.5,30.08,WSW,249,3.0,9.0,46,0.00,,CLR,0.00,VWS V14.01,2013-11-09 21:08:00,
2013-11-09 15:13:00,65.7,43.8,30.08,WSW,238,3.0,10.0,45,0.00,,CLR,0.00,VWS V14.01,2013-11-09 21:13:00,
2013-11-09 15:18:00,65.6,44.3,30.08,WSW,242,8.0,10.0,46,0.00,,CLR,0.00,VWS V14.01,2013-11-09 21:18:00,
2013-11-09 15:23:00,65.5,44.2,30.08,SW,225,3.0,6.0,46,0.00,,CLR,0.00,VWS V14.01,2013-11-09 21:23:00,
2013-11-09 15:28:00,65.5,44.8,30.08,South,171,2.0,8.0,47,0.00,,CLR,0.00,VWS V14.01,2013-11-09 21:28:00,
2013-11-09 15:33:00,65.4,44.7,30.08,WSW,243,0.0,8.0,47,0.00,,CLR,0.00,VWS V14.01,2013-11-09 21:33:00,
2013-11-09 15:38:00,65.3,44.6,30.08,WSW,245,1.0,8.0,47,0.00,,CLR,0.00,VWS V14.01,2013-11-09 21:38:00,
2013-11-09 15:43:00,65.4,44.7,30.08,WSW,250,3.0,3.0,47,0.00,,CLR,0.00,VWS V14.01,2013-11-09 21:43:00,
2013-11-09 15:48:00,65.4,44.7,30.08,WSW,249,3.0,8.0,47,0.00,,CLR,0.00,VWS V14.01,2013-11-09 21:48:00,
2013-11-09 15:53:00,65.4,44.7,30.09,SW,227,2.0,3.0,47,0.00,,CLR,0.00,VWS V14.01,2013-11-09 21:53:00,
2013-11-09 15:58:00,65.0,44.3,30.09,WSW,245,0.0,9.0,47,0.00,,CLR,0.00,VWS V14.01,2013-11-09 21:58:00,
2013-11-09 16:03:00,64.7,44.0,30.09,WSW,240,3.0,6.0,47,0.00,,CLR,0.00,VWS V14.01,2013-11-09 22:03:00,
2013-11-09 16:08:00,64.5,44.4,30.09,SW,215,3.0,6.0,48,0.00,,CLR,0.00,VWS V14.01,2013-11-09 22:08:00,
2013-11-09 16:13:00,64.2,44.1,30.09,WSW,245,2.0,4.0,48,0.00,,CLR,0.00,VWS V14.01,2013-11-09 22:13:00,
2013-11-09 16:18:00,63.8,44.3,30.09,WSW,253,2.0,4.0,49,0.00,,CLR,0.00,VWS V14.01,2013-11-09 22:18:00,
2013-11-09 16:23:00,63.6,44.1,30.09,WSW,249,0.0,3.0,49,0.00,,CLR,0.00,VWS V14.01,2013-11-09 22:23:00,
2013-11-09 16:28:00,63.4,44.5,30.09,SW,234,0.0,6.0,50,0.00,,CLR,0.00,VWS V14.01,2013-11-09 22:28:00,
2013-11-09 16:33:00,63.1,44.2,30.10,WSW,237,0.0,3.0,50,0.00,,CLR,0.00,VWS V14.01,2013-11-09 22:33:00,
2013-11-09 16:38:00,62.9,44.0,30.10,WSW,241,4.0,6.0,50,0.00,,CLR,0.00,VWS V14.01,2013-11-09 22:38:00,
2013-11-09 16:43:00,62.5,44.2,30.10,WSW,240,1.0,4.0,51,0.00,,CLR,0.00,VWS V14.01,2013-11-09 22:43:00,
2013-11-09 16:48:00,62.3,44.0,30.10,SW,226,0.0,5.0,51,0.00,,CLR,0.00,VWS V14.01,2013-11-09 22:48:00,
2013-11-09 16:53:00,62.0,43.7,30.10,WSW,237,0.0,6.0,51,0.00,,CLR,0.00,VWS V14.01,2013-11-09 22:53:00,
2013-11-09 16:58:00,61.7,43.9,30.10,SW,214,2.0,6.0,52,0.00,,CLR,0.00,VWS V14.01,2013-11-09 22:58:00,
2013-11-09 17:03:00,61.4,43.6,30.10,SW,214,2.0,2.0,52,0.00,,CLR,0.00,VWS V14.01,2013-11-09 23:03:00,
2013-11-09 17:08:00,61.1,43.9,30.11,SW,215,0.0,5.0,53,0.00,,CLR,0.00,VWS V14.01,2013-11-09 23:08:00,
2013-11-09 17:13:00,60.9,43.7,30.11,SW,215,0.0,3.0,53,0.00,,CLR,0.00,VWS V14.01,2013-11-09 23:13:00,
2013-11-09 17:18:00,60.6,43.9,30.11,SW,215,0.0,4.0,54,0.00,,CLR,0.00,VWS V14.01,2013-11-09 23:18:00,
2013-11-09 17:23:00,60.4,43.7,30.11,SW,215,0.0,3.0,54,0.00,,CLR,0.00,VWS V14.01,2013-11-09 23:23:00,
2013-11-09 17:28:00,60.1,43.4,30.11,SW,215,0.0,3.0,54,0.00,,CLR,0.00,VWS V14.01,2013-11-09 23:28:00,
2013-11-09 17:33:00,59.9,43.7,30.11,SW,215,0.0,3.0,55,0.00,,CLR,0.00,VWS V14.01,2013-11-09 23:33:00,
2013-11-09 17:38:00,59.6,43.4,30.12,SW,215,0.0,3.0,55,0.00,,CLR,0.00,VWS V14.01,2013-11-09 23:38:00,
2013-11-09 17:43:00,59.3,43.6,30.11,SW,215,0.0,0.0,56,0.00,,CLR,0.00,VWS V14.01,2013-11-09 23:43:00,
2013-11-09 17:48:00,58.8,43.6,30.12,SW,215,0.0,1.0,57,0.00,,CLR,0.00,VWS V14.01,2013-11-09 23:48:00,
2013-11-09 17:53:00,58.4,43.7,30.12,SW,215,0.0,1.0,58,0.00,,CLR,0.00,VWS V14.01,2013-11-09 23:53:00,
2013-11-09 17:58:00,58.1,43.4,30.12,SW,215,0.0,3.0,58,0.00,,CLR,0.00,VWS V14.01,2013-11-09 23:58:00,
2013-11-09 18:03:00,57.8,43.6,30.12,SW,215,0.0,3.0,59,0.00,,CLR,0.00,VWS V14.01,2013-11-10 00:03:00,
2013-11-09 18:08:00,57.6,43.8,30.13,SW,215,0.0,3.0,60,0.00,,CLR,0.00,VWS V14.01,2013-11-10 00:08:00,
2013-11-09 18:13:00,57.6,43.8,30.13,SW,215,0.0,2.0,60,0.00,,CLR,0.00,VWS V14.01,2013-11-10 00:13:00,
2013-11-09 18:18:00,57.4,43.6,30.13,SW,221,0.0,4.0,60,0.00,,CLR,0.00,VWS V14.01,2013-11-10 00:18:00,
2013-11-09 18:23:00,57.3,43.5,30.13,SW,221,0.0,3.0,60,0.00,,CLR,0.00,VWS V14.01,2013-11-10 00:23:00,
2013-11-09 18:28:00,57.2,43.5,30.13,SW,221,1.0,4.0,60,0.00,,CLR,0.00,VWS V14.01,2013-11-10 00:28:00,
2013-11-09 18:33:00,57.2,43.5,30.14,SW,221,0.0,1.0,60,0.00,,CLR,0.00,VWS V14.01,2013-11-10 00:33:00,
2013-11-09 18:38:00,57.0,43.7,30.13,SW,221,0.0,4.0,61,0.00,,CLR,0.00,VWS V14.01,2013-11-10 00:38:00,
2013-11-09 18:44:00,56.9,43.6,30.13,SW,221,1.0,3.0,61,0.00,,CLR,0.00,VWS V14.01,2013-11-10 00:44:00,
2013-11-09 18:49:00,56.7,43.4,30.13,SW,221,1.0,3.0,61,0.00,,CLR,0.00,VWS V14.01,2013-11-10 00:49:00,
2013-11-09 18:54:00,56.6,43.3,30.14,SW,221,0.0,0.0,61,0.00,,CLR,0.00,VWS V14.01,2013-11-10 00:54:00,
2013-11-09 18:59:00,56.4,43.6,30.14,SW,221,0.0,2.0,62,0.00,,CLR,0.00,VWS V14.01,2013-11-10 00:59:00,
2013-11-09 19:04:00,56.2,43.4,30.14,SW,221,0.0,2.0,62,0.00,,CLR,0.00,VWS V14.01,2013-11-10 01:04:00,
2013-11-09 19:09:00,56.0,43.2,30.14,SW,221,0.0,4.0,62,0.00,,CLR,0.00,VWS V14.01,2013-11-10 01:09:00,
2013-11-09 19:14:00,55.9,43.5,30.14,SW,221,0.0,1.0,63,0.00,,CLR,0.00,VWS V14.01,2013-11-10 01:14:00,
2013-11-09 19:19:00,55.8,43.4,30.14,SW,226,0.0,5.0,63,0.00,,CLR,0.00,VWS V14.01,2013-11-10 01:19:00,
2013-11-09 19:24:00,55.8,43.4,30.14,SW,226,0.0,0.0,63,0.00,,CLR,0.00,VWS V14.01,2013-11-10 01:24:00,
2013-11-09 19:29:00,55.8,43.4,30.15,SW,226,0.0,1.0,63,0.00,,CLR,0.00,VWS V14.01,2013-11-10 01:29:00,
2013-11-09 19:34:00,55.8,43.4,30.15,SW,227,0.0,2.0,63,0.00,,CLR,0.00,VWS V14.01,2013-11-10 01:34:00,
2013-11-09 19:39:00,55.8,43.4,30.15,SW,227,0.0,5.0,63,0.00,,CLR,0.00,VWS V14.01,2013-11-10 01:39:00,
2013-11-09 19:44:00,55.7,43.3,30.15,SW,236,0.0,0.0,63,0.00,,CLR,0.00,VWS V14.01,2013-11-10 01:44:00,
2013-11-09 19:49:00,55.6,43.2,30.15,SW,236,0.0,4.0,63,0.00,,CLR,0.00,VWS V14.01,2013-11-10 01:49:00,
2013-11-09 19:54:00,55.6,43.2,30.15,SW,236,0.0,4.0,63,0.00,,CLR,0.00,VWS V14.01,2013-11-10 01:54:00,
2013-11-09 19:59:00,55.6,43.2,30.15,SW,236,0.0,4.0,63,0.00,,CLR,0.00,VWS V14.01,2013-11-10 01:59:00,
2013-11-09 20:04:00,55.4,43.0,30.16,SW,236,0.0,1.0,63,0.00,,CLR,0.00,VWS V14.01,2013-11-10 02:04:00,
2013-11-09 20:09:00,55.1,43.2,30.16,SW,236,0.0,3.0,64,0.00,,CLR,0.00,VWS V14.01,2013-11-10 02:09:00,
2013-11-09 20:14:00,54.7,42.8,30.16,SW,236,1.0,1.0,64,0.00,,CLR,0.00,VWS V14.01,2013-11-10 02:14:00,
2013-11-09 20:19:00,54.4,42.9,30.16,SW,236,0.0,1.0,65,0.00,,CLR,0.00,VWS V14.01,2013-11-10 02:19:00,
2013-11-09 20:24:00,54.0,42.9,30.16,SW,236,0.0,0.0,66,0.00,,CLR,0.00,VWS V14.01,2013-11-10 02:24:00,
2013-11-09 20:29:00,53.6,42.5,30.16,SW,236,0.0,2.0,66,0.00,,CLR,0.00,VWS V14.01,2013-11-10 02:29:00,
2013-11-09 20:34:00,53.3,42.6,30.16,SW,236,0.0,0.0,67,0.00,,CLR,0.00,VWS V14.01,2013-11-10 02:34:00,
2013-11-09 20:39:00,53.1,42.5,30.16,SW,236,0.0,1.0,67,0.00,,CLR,0.00,VWS V14.01,2013-11-10 02:39:00,
2013-11-09 20:44:00,53.0,42.7,30.17,SW,236,0.0,0.0,68,0.00,,CLR,0.00,VWS V14.01,2013-11-10 02:44:00,
2013-11-09 20:49:00,52.8,42.5,30.17,SW,236,0.0,2.0,68,0.00,,CLR,0.00,VWS V14.01,2013-11-10 02:49:00,
2013-11-09 20:54:00,52.7,42.5,30.17,SW,236,0.0,0.0,68,0.00,,CLR,0.00,VWS V14.01,2013-11-10 02:54:00,
2013-11-09 20:59:00,52.5,42.3,30.17,SW,236,0.0,2.0,68,0.00,,CLR,0.00,VWS V14.01,2013-11-10 02:59:00,
2013-11-09 21:04:00,52.4,42.5,30.17,SW,236,0.0,0.0,69,0.00,,CLR,0.00,VWS V14.01,2013-11-10 03:04:00,
2013-11-09 21:09:00,52.4,42.5,30.17,SW,236,0.0,1.0,69,0.00,,CLR,0.00,VWS V14.01,2013-11-10 03:09:00,
2013-11-09 21:14:00,52.2,42.3,30.17,SW,236,0.0,0.0,69,0.00,,CLR,0.00,VWS V14.01,2013-11-10 03:14:00,
2013-11-09 21:19:00,51.9,42.1,30.17,SW,236,0.0,1.0,69,0.00,,CLR,0.00,VWS V14.01,2013-11-10 03:19:00,
2013-11-09 21:24:00,51.5,42.0,30.18,SW,236,0.0,0.0,70,0.00,,CLR,0.00,VWS V14.01,2013-11-10 03:24:00,
2013-11-09 21:29:00,51.2,42.1,30.18,SW,236,0.0,1.0,71,0.00,,CLR,0.00,VWS V14.01,2013-11-10 03:29:00,
2013-11-09 21:34:00,50.9,41.8,30.17,SW,236,0.0,0.0,71,0.00,,CLR,0.00,VWS V14.01,2013-11-10 03:34:00,
2013-11-09 21:39:00,50.7,42.0,30.17,SW,236,0.0,1.0,72,0.00,,CLR,0.00,VWS V14.01,2013-11-10 03:39:00,
2013-11-09 21:44:00,50.4,41.7,30.17,SW,236,0.0,0.0,72,0.00,,CLR,0.00,VWS V14.01,2013-11-10 03:44:00,
2013-11-09 21:49:00,50.3,42.0,30.18,SW,236,0.0,1.0,73,0.00,,CLR,0.00,VWS V14.01,2013-11-10 03:49:00,
2013-11-09 21:54:00,50.1,41.8,30.18,SW,236,0.0,0.0,73,0.00,,CLR,0.00,VWS V14.01,2013-11-10 03:54:00,
2013-11-09 21:59:00,50.0,41.7,30.18,SW,236,0.0,0.0,73,0.00,,CLR,0.00,VWS V14.01,2013-11-10 03:59:00,
2013-11-09 22:04:00,49.8,41.5,30.18,SW,236,0.0,0.0,73,0.00,,CLR,0.00,VWS V14.01,2013-11-10 04:04:00,
2013-11-09 22:09:00,49.6,41.7,30.18,SW,236,0.0,0.0,74,0.00,,CLR,0.00,VWS V14.01,2013-11-10 04:09:00,
2013-11-09 22:14:00,49.5,41.6,30.18,SW,236,0.0,0.0,74,0.00,,CLR,0.00,VWS V14.01,2013-11-10 04:14:00,
2013-11-09 22:19:00,49.4,41.5,30.18,SW,236,0.0,0.0,74,0.00,,CLR,0.00,VWS V14.01,2013-11-10 04:19:00,
2013-11-09 22:24:00,49.2,41.3,30.19,SW,236,0.0,0.0,74,0.00,,CLR,0.00,VWS V14.01,2013-11-10 04:24:00,
2013-11-09 22:29:00,48.9,41.3,30.19,SW,236,0.0,0.0,75,0.00,,CLR,0.00,VWS V14.01,2013-11-10 04:29:00,
2013-11-09 22:34:00,48.7,41.1,30.19,SW,236,0.0,0.0,75,0.00,,CLR,0.00,VWS V14.01,2013-11-10 04:34:00,
2013-11-09 22:39:00,48.5,41.3,30.19,SW,236,0.0,0.0,76,0.00,,CLR,0.00,VWS V14.01,2013-11-10 04:39:00,
2013-11-09 22:44:00,48.2,41.0,30.19,SW,236,0.0,0.0,76,0.00,,CLR,0.00,VWS V14.01,2013-11-10 04:44:00,
2013-11-09 22:49:00,47.8,40.6,30.19,SW,236,0.0,0.0,76,0.00,,CLR,0.00,VWS V14.01,2013-11-10 04:49:00,
2013-11-09 22:54:00,47.5,40.7,30.19,SW,236,0.0,0.0,77,0.00,,CLR,0.00,VWS V14.01,2013-11-10 04:54:00,
2013-11-09 22:59:00,47.2,40.7,30.20,SW,236,0.0,0.0,78,0.00,,CLR,0.00,VWS V14.01,2013-11-10 04:59:00,
2013-11-09 23:01:00,47.0,40.5,30.20,SW,236,0.0,0.0,78,0.00,,CLR,0.00,VWS V14.01,2013-11-10 05:01:00,
2013-11-09 23:04:00,46.9,40.4,30.20,SW,236,0.0,0.0,78,0.00,,CLR,0.00,VWS V14.01,2013-11-10 05:04:00,
2013-11-09 23:09:00,46.6,40.5,30.20,SW,236,0.0,0.0,79,0.00,,CLR,0.00,VWS V14.01,2013-11-10 05:09:00,
2013-11-09 23:11:00,46.4,40.2,30.20,SW,236,0.0,0.0,79,0.00,,CLR,0.00,VWS V14.01,2013-11-10 05:11:00,
2013-11-09 23:19:00,46.0,40.2,30.20,SW,236,0.0,0.0,80,0.00,,CLR,0.00,VWS V14.01,2013-11-10 05:19:00,
2013-11-09 23:21:00,45.9,40.1,30.20,SW,236,0.0,0.0,80,0.00,,CLR,0.00,VWS V14.01,2013-11-10 05:21:00,
2013-11-09 23:29:00,45.7,40.2,30.20,SW,236,0.0,0.0,81,0.00,,CLR,0.00,VWS V14.01,2013-11-10 05:29:00,
2013-11-09 23:34:00,45.6,40.1,30.20,SW,236,0.0,0.0,81,0.00,,CLR,0.00,VWS V14.01,2013-11-10 05:34:00,
2013-11-09 23:39:00,45.4,39.9,30.21,SW,236,0.0,0.0,81,0.00,,CLR,0.00,VWS V14.01,2013-11-10 05:39:00,
2013-11-09 23:44:00,45.1,39.9,30.21,SW,236,0.0,0.0,82,0.00,,CLR,0.00,VWS V14.01,2013-11-10 05:44:00,
2013-11-09 23:49:00,44.9,39.8,30.21,SW,236,0.0,0.0,82,0.00,,CLR,0.00,VWS V14.01,2013-11-10 05:49:00,
2013-11-09 23:54:00,44.7,39.5,30.21,SW,236,0.0,0.0,82,0.00,,CLR,0.00,VWS V14.01,2013-11-10 05:54:00,
2013-11-09 23:59:00,44.7,39.9,30.21,SW,236,0.0,0.0,83,0.00,,CLR,0.00,VWS V14.01,2013-11-10 05:59:00,